GFSSGP_con_mucape_336.txt.gz
CAPE
1145 1009 1177 1074 1129 795 183 177 105 138 201 138 153 128 111 54 340 282 151 22 13 128 32 227 1801 2206 1478 1899 1809 943 1210 1357 1722 1178 999 1042 1403 1444 1328 1722 1468 1415 1836 1475 928 738 770 869 1911
1265 1138 1358 1489 884 213 266 241 235 129 149 26 40 184 127 262 137 151 55 2 139 144 80 141 1895 2192 2090 1984 2217 2070 1219 1297 1336 1112 1123 1285 1294 1393 1237 1428 1370 1730 2009 1401 1407 1167 1020 1486 1742
1482 1361 1669 1907 156 105 250 160 115 136 146 127 64 30 21 53 36 48 61 65 295 206 199 498 1676 2155 2112 1753 1858 2003 1532 1259 1233 1264 1267 1457 1311 1201 1195 1343 1358 1570 1930 1451 1271 1115 1479 1812 1761
1617 1624 1616 823 62 56 243 153 108 131 127 88 142 9 0 0 17 18 40 138 158 242 250 967 1656 1637 1774 1576 1910 1744 1341 1345 1371 1219 1168 1568 1025 1209 1281 1308 1273 1506 1242 1302 1277 1381 1159 1377 1259
1708 2101 1260 29 44 6 236 182 151 200 178 73 62 30 0 0 15 80 204 276 207 262 205 636 2001 1845 1647 1751 1922 1558 1303 1173 1019 1137 1280 1212 1094 1281 1302 1194 1324 1424 1126 1297 1252 1242 1082 1077 1220
244 334 1112 129 58 10 14 79 84 207 192 141 203 40 1 7 23 112 237 258 296 294 183 443 1556 1804 1779 1716 1532 1518 1319 1170 1144 1053 1125 1315 1334 1020 1429 1506 1379 1410 1479 1382 1166 827 747 874 987
333 104 3 74 75 39 1 40 74 98 164 143 131 201 4 16 114 125 262 230 280 194 106 179 534 1299 1374 1508 1393 1262 1289 1178 1131 1170 862 1350 1199 1309 1134 1497 1530 1467 1566 1356 1168 977 929 864 706
173 382 54 62 90 29 0 0 4 100 256 167 232 259 0 0 34 80 155 234 150 224 80 153 423 343 637 844 1421 1391 1320 1250 1368 1499 1242 1348 1480 1408 1198 1728 1751 1462 1273 1335 970 890 745 601 539
223 962 328 269 208 82 0 0 0 37 75 171 255 227 2 0 3 98 100 108 176 247 63 50 144 541 745 1171 1612 1696 1663 1576 1396 1313 1128 1482 1410 1393 1356 1485 1782 1588 1330 1237 1025 871 803 629 660
449 896 64 213 285 219 8 0 0 17 42 341 217 138 0 0 17 65 111 150 187 198 143 172 175 269 749 670 1465 1787 1588 1234 1391 1582 1773 1705 1158 777 1084 1299 1772 1570 1501 988 1096 973 905 767 409
777 519 322 218 468 370 158 22 27 8 72 103 13 0 0 0 0 12 69 104 181 227 281 334 289 1069 924 1537 1735 1732 1645 1406 1564 2350 2173 1520 1595 1580 863 1564 1391 1721 1600 1468 825 829 849 905 894
392 418 218 410 528 511 501 104 125 192 78 35 0 0 0 0 0 0 37 61 62 153 298 361 642 509 895 826 1472 1853 1099 1614 1478 1797 2409 1831 1852 1794 937 1149 1073 1371 1243 1406 1542 903 1057 1895 779
103 232 305 503 597 682 575 396 287 138 89 20 0 0 0 0 0 0 0 33 64 102 331 503 661 634 1865 2782 1990 1641 815 1398 1253 1352 1924 1815 1798 1078 488 545 726 448 1255 1313 1877 1233 1280 872 622
107 335 258 488 613 680 755 554 494 300 122 40 0 0 0 0 0 0 10 85 139 250 552 523 1110 1953 2088 2744 2274 2307 2475 2434 698 1822 1446 3070 2359 1733 1251 1794 878 774 1041 934 971 582 1146 1637 738
138 145 26 488 651 566 575 375 547 521 183 172 22 0 13 0 0 16 69 154 280 313 380 878 1069 1231 2190 2374 1929 2202 2230 1245 1640 1774 2086 2553 3311 1610 1183 919 749 137 1326 1261 1271 1415 752 369 379
85 72 161 515 786 607 309 49 640 646 370 288 207 89 89 64 9 95 53 180 317 591 815 826 503 1132 1595 1637 2003 1716 1686 1827 868 1899 2448 3055 2172 1644 1936 2039 1069 974 1356 1360 1571 1640 946 747 1622
12 56 6 312 392 652 496 261 666 840 592 440 379 269 162 168 187 267 242 460 477 731 1062 711 1024 968 1516 2158 2494 2307 2460 2125 2469 2432 2670 2858 2278 2117 1299 1571 1605 1308 1830 1692 1372 1759 1879 1357 1327
8 130 48 151 29 24 149 586 944 857 857 692 553 529 471 321 245 336 349 413 369 603 853 885 918 1561 1543 1783 1897 2173 2630 2890 2232 2017 2281 2593 2127 1902 1033 1657 1259 1637 1931 1951 1503 2192 1922 1248 1298
140 66 183 131 81 15 106 320 1005 745 910 922 776 680 629 527 513 369 389 361 308 464 852 1031 1456 2494 1881 1378 1878 2301 2445 2218 2031 2716 2005 1921 2462 2172 1826 1903 1302 1445 2128 1913 1736 1912 2360 1722 2078
0 1 124 60 90 204 4 181 734 676 612 932 985 960 844 720 648 726 489 245 178 741 1131 1510 1776 2489 1824 1813 1754 1943 2214 2301 1352 1222 1859 2406 2612 2639 2323 2000 1987 1348 2805 2236 2253 2185 1717 1930 2301
0 0 0 130 209 222 20 299 424 128 487 490 783 1081 1092 945 735 745 532 284 357 991 1238 1842 1831 2268 1853 2387 2375 2582 1666 759 488 236 499 1913 2792 2819 2529 2597 2698 2003 2852 2006 2319 2751 2028 1843 1791
0 0 0 0 1 131 141 386 395 36 66 596 534 778 1020 1046 923 823 635 307 369 951 1448 1953 1561 2503 2173 2593 2910 2990 1938 1561 623 603 794 1737 2699 2856 2793 2263 3220 2644 2436 2643 2213 2407 2438 1926 1487
0 0 0 0 0 33 184 247 349 182 190 791 559 755 721 1224 1126 929 768 572 381 694 1173 1763 1884 2931 2450 2405 3202 2793 2971 2741 902 189 204 1774 2095 2915 2487 2696 3428 3108 2784 2285 2578 2840 2844 2322 1943
0 0 0 0 0 15 61 190 114 290 516 177 10 179 548 814 1282 1174 975 748 607 638 1070 1333 2446 2608 3208 3216 3082 3461 3683 2877 2489 1059 1018 1704 2279 2630 2392 2650 3162 3049 2367 2844 2809 3217 2443 2366 2728
0 0 1 13 16 52 58 186 150 161 132 12 50 9 30 546 1515 1379 1046 739 763 642 856 1043 2378 2976 3129 3851 3491 3237 3427 4093 3334 2462 1847 2108 1691 2105 2821 3203 2360 1797 2675 3065 2869 2975 2995 3079 2823
0 0 1 48 59 4 23 56 16 0 225 178 322 267 418 232 1429 1492 1382 1009 941 822 1020 1232 2358 2920 3258 2899 3893 3865 3631 3308 3255 3201 2494 2459 1388 1773 2641 3163 2604 2054 2689 3252 3305 3067 2323 2863 3045
0 0 0 0 0 0 0 13 31 141 158 276 742 916 1138 947 1115 1544 1233 1044 1110 1035 1297 1499 2463 3001 3166 3436 3576 4045 4014 3810 2881 3418 3618 3218 3725 1346 2838 2684 2589 2873 2743 2919 3074 2326 2233 2773 3023
0 0 0 0 11 33 107 363 365 240 124 343 963 1358 1921 1604 1188 1533 1440 1289 1352 1178 1558 1679 2994 3128 3328 3304 3550 3789 4081 4082 3878 4187 4603 3586 3987 3672 2344 2896 2964 2891 2911 2793 3247 2495 2707 2844 2667
0 0 0 0 27 22 6 202 293 483 444 566 1031 1972 2064 1815 1383 1467 1106 1370 1443 1300 1369 1590 2779 3132 3420 3190 3152 3433 3455 3668 3947 3614 3947 4553 4103 4389 3278 3503 3246 3391 3147 3447 3184 2695 2772 2844 2406
0 0 0 0 6 5 110 421 255 375 724 1104 1560 1914 2193 2045 1818 1401 1263 1154 1259 1434 1550 1595 2326 3062 2990 2725 3305 3432 3561 3526 3614 3557 3646 3718 4006 4709 4357 3875 3867 3569 3059 3154 2909 2752 1994 2712 2762

GFSSGP_con_mucape_339.txt.gz
CAPE
1143 824 562 912 816 329 118 221 236 151 88 80 94 81 118 188 85 19 2 9 0 0 88 778 1922 1256 826 979 780 1111 1283 1679 1237 1024 1200 1592 1483 1455 1349 1456 1531 1521 1190 942 599 819 1298 1779 1700
872 1023 1021 808 328 125 119 161 195 121 63 54 63 81 79 138 38 50 5 0 0 0 2 705 2077 1525 1120 1149 904 1666 1403 1276 1153 1179 1344 1426 1495 1286 1469 1362 1586 1564 1533 1061 1074 1052 1763 1815 1720
1498 1270 937 1007 346 158 156 86 66 42 24 62 79 58 16 76 48 0 0 18 18 0 53 932 2384 2164 1235 1389 1500 1716 1320 1120 1112 1360 1407 1421 1262 1187 1404 1413 1509 1453 1375 1800 1233 1773 1934 1586 1385
1404 1255 1300 817 197 227 205 103 58 85 83 32 9 3 14 13 37 0 1 130 272 10 406 1683 2249 1588 1551 1503 1511 1328 1366 1402 1418 1078 1518 1045 1226 1285 1350 1383 1507 1364 1427 1389 1386 1329 1439 1315 1126
1141 855 859 312 123 190 170 155 123 143 85 78 1 1 10 8 2 19 93 136 109 125 796 1332 2358 2416 2025 1544 1461 1443 1400 1239 1005 1247 1374 1356 1133 1231 1399 1355 1486 1273 1275 1385 1463 1276 1293 1277 1164
53 176 178 39 6 201 226 142 138 182 69 47 46 0 4 13 36 104 126 156 177 196 669 1162 1846 2100 1910 1479 1465 1406 1323 1128 1091 1156 1072 1402 1056 1249 1531 1340 1402 1142 1419 1296 1079 987 1030 1027 952
172 112 119 40 46 13 168 157 167 176 112 142 1 0 1 31 87 116 189 314 328 149 404 803 960 1187 1575 2156 1697 1583 1433 1115 1087 1031 1127 1305 1302 1038 1307 1457 1415 1506 1371 1267 1020 866 998 993 982
514 614 209 69 37 5 32 52 173 165 177 132 49 43 6 0 95 138 173 275 304 168 236 663 934 996 1097 1255 1588 1370 1383 1146 1006 1378 1092 1453 1411 1403 1337 1961 1912 1549 1520 1181 1019 944 898 800 639
161 280 416 213 83 11 0 0 20 179 120 80 137 119 0 10 78 152 150 146 179 105 121 156 495 719 622 663 973 1610 1496 1475 1577 1496 1422 1794 974 1057 1091 1575 1724 1548 1238 1210 929 841 720 630 650
341 508 580 256 98 0 8 18 60 127 127 137 140 107 12 10 65 107 101 124 91 44 2 74 109 104 181 969 1271 1387 1413 1268 1177 1046 801 1110 771 733 1363 934 1808 1665 1270 1199 1083 936 905 793 361
874 674 421 364 200 137 86 56 45 232 152 95 28 23 0 0 35 62 82 82 98 52 16 83 105 222 417 702 1018 1046 1146 990 840 857 845 765 859 466 759 692 1444 1284 1484 758 850 814 754 609 531
279 224 480 540 494 307 212 92 145 111 130 0 0 0 0 0 11 43 55 92 62 63 104 114 423 602 548 668 706 813 1204 1065 682 1137 702 842 690 649 482 631 1061 1119 1126 1161 447 362 564 440 504
297 31 223 644 654 409 450 235 223 210 13 0 0 0 0 0 0 0 23 50 89 91 125 131 206 475 755 476 858 1142 1094 937 704 1159 1085 982 615 521 469 285 546 12 704 752 794 749 430 356 649
214 59 56 228 684 700 528 391 298 152 35 0 0 0 0 0 0 0 0 2 18 68 51 183 161 326 476 992 1008 835 1171 745 931 904 1087 833 745 420 94 254 379 176 374 512 479 503 263 304 147
128 44 0 86 242 653 153 484 440 275 40 34 0 0 0 0 0 0 0 0 0 63 179 500 377 317 971 1306 1145 716 1068 1018 873 539 870 1586 936 682 517 529 358 306 251 559 396 208 239 269 85
65 82 68 4 408 548 140 352 624 233 62 42 32 0 0 0 0 0 0 19 62 105 194 466 762 1059 1540 1490 1205 550 904 800 992 1036 1563 1248 1233 962 940 591 289 108 161 395 911 341 64 18 2
30 6 1 44 132 469 472 237 290 446 89 90 107 61 8 0 0 0 4 48 84 111 200 460 838 654 1269 1105 807 1039 1373 1107 666 998 1838 1563 1155 903 535 907 270 434 531 470 858 525 139 703 723
0 57 38 4 60 344 520 308 120 533 307 172 217 239 241 59 24 8 0 8 97 195 325 529 857 760 1126 653 1589 1471 997 1492 828 1301 1533 1541 1106 1050 717 951 631 437 378 684 733 659 1057 912 878
5 71 122 108 100 131 331 466 288 317 477 260 386 436 391 406 202 84 101 171 241 304 358 316 515 948 986 1157 1307 1226 1253 1337 1144 879 1626 1121 694 1045 736 1024 707 633 562 888 1169 944 823 848 775
0 0 6 110 96 20 463 509 248 508 421 477 473 545 525 509 410 337 172 203 275 443 467 415 712 907 786 787 769 1231 1588 1260 1074 938 794 1158 1203 1306 1013 1077 783 565 999 911 800 656 916 904 1084
0 0 0 0 77 105 508 564 470 367 5 507 722 805 760 687 615 472 429 257 222 335 544 594 1119 868 802 414 807 1247 1301 836 682 537 476 690 863 1336 1759 937 988 652 1081 918 1053 1028 1059 782 922
0 0 0 0 0 70 45 365 176 17 51 316 749 939 944 955 786 688 535 453 221 482 644 542 1251 919 976 954 977 1218 1013 720 480 213 81 35 366 1034 1622 1213 1046 1137 1283 919 818 1212 958 814 868
0 0 0 0 0 0 82 346 410 97 112 324 463 783 999 961 904 834 674 550 467 725 890 542 1318 1162 1019 1482 1206 1264 1283 911 592 359 54 175 287 547 1421 1639 1624 1149 1284 1031 1092 1166 1126 1115 809
0 0 0 0 0 0 41 185 178 145 24 223 440 618 721 1006 915 897 766 668 602 694 1106 691 1398 959 934 936 1700 2088 1564 1213 659 438 0 268 721 1068 1337 1668 1788 1566 1520 1475 1228 1172 1358 1378 1330
0 0 0 0 0 14 91 28 1 148 119 41 156 64 631 1028 990 943 862 775 713 771 1027 944 1028 1389 1402 967 1461 1799 2254 1439 1192 943 494 597 846 1177 1473 1751 1644 1503 1702 1411 1474 1302 1107 1404 1423
0 0 0 0 0 0 3 17 27 21 67 86 98 277 512 521 1068 956 923 890 815 738 914 1512 964 1730 2140 1826 1792 1841 1993 2287 1627 1288 770 886 1124 1282 1458 1660 1581 1248 1163 1802 1686 1801 1575 1774 1628
0 0 0 0 0 19 5 14 31 127 117 578 722 1263 1172 1156 1082 983 974 931 829 579 842 1310 1603 1519 1937 2615 2398 2409 2392 2418 2585 2013 1241 1103 1425 1449 1204 1576 1662 1174 1037 1634 1759 1765 1685 1391 1806
0 0 0 0 0 5 85 168 205 104 576 771 985 1545 1615 1567 1165 1088 991 770 829 681 629 1297 1597 1930 2096 1833 2141 2874 2799 2791 2611 2383 2322 2519 2218 1168 1445 1873 1789 1723 1463 1608 2100 1732 1497 1435 1885
0 0 0 0 0 29 149 254 410 376 735 1059 1427 1658 1885 1624 1247 1194 1121 928 529 684 753 1321 1829 1872 2094 2397 2033 2135 2981 3138 2879 2963 3127 2965 2281 1908 1825 1828 1786 1883 2104 1761 2033 1825 1488 1597 1551
0 0 0 0 0 0 29 287 121 553 1013 1478 1680 1897 1703 1385 1500 1362 952 876 1117 718 1079 1075 2246 2232 2396 2385 2704 2605 2864 3169 3255 2919 2657 3132 2785 2104 1900 1775 1848 2156 2039 1868 1854 1911 1560 1772 1512

GFSSGP_con_mucape_342.txt.gz
CAPE
1276 1054 993 855 472 152 81 161 129 133 69 82 140 138 123 106 75 40 0 0 7 220 805 1196 1453 991 703 650 915 1499 1595 1057 1024 1474 1995 1546 1705 1509 1468 1548 1578 1136 1083 821 1106 1782 1608 1889 1868
1072 989 931 834 213 85 55 131 180 133 49 69 46 82 97 67 39 0 0 0 0 34 689 1090 1526 1552 752 773 1278 1577 1248 1054 1178 1384 1598 1602 1375 1443 1363 1508 1583 1078 838 850 1280 1773 1730 1767 1848
985 1315 836 992 244 62 63 121 91 66 58 45 43 75 40 45 21 0 0 0 0 1 577 1152 1784 1757 848 930 1456 1416 1146 1129 1349 1596 1407 1325 1313 1418 1380 1641 1525 1505 1315 1213 1303 1602 1547 1481 1363
1132 1315 1285 476 171 209 111 52 23 55 57 58 44 49 35 16 11 0 0 7 0 81 679 1883 1576 748 904 1219 1479 1242 1053 1215 1055 1596 1081 1328 1418 1329 1396 1487 1532 1446 1336 1653 1810 1880 1402 1380 1369
1201 222 432 247 191 194 88 101 51 55 37 30 44 0 23 20 5 3 29 133 29 247 952 1376 2101 1703 1698 1677 1347 1364 1525 1466 1146 1484 1430 1107 1380 1412 1470 1343 1423 1454 1569 1452 1271 1386 1169 980 1142
313 167 32 25 161 196 159 77 62 55 62 35 0 0 20 19 23 164 225 98 241 590 1063 1277 1908 2299 1721 1472 1519 1472 1312 1076 1221 1096 1333 1208 1312 1583 1405 1502 1342 1399 1490 1577 1376 1193 1272 1234 953
177 114 217 0 108 224 271 65 129 88 51 38 58 4 40 35 79 192 281 250 385 753 1165 1324 1343 1488 1647 1740 1504 1494 1397 1118 1087 1143 1518 1290 1154 1530 1482 1603 1492 1517 1294 1134 1037 1034 1087 998 1074
379 467 279 52 0 54 223 154 145 78 112 87 12 13 104 81 137 155 207 462 242 562 886 1127 1035 1053 1266 1486 1672 1586 1484 1075 1183 1055 1112 1335 1453 1193 1608 1663 1339 1419 1348 1202 1012 1095 1167 1057 782
62 140 420 250 18 0 86 152 187 125 99 88 29 85 25 132 141 167 194 225 181 225 606 813 959 1015 1234 1274 1431 1847 1426 1176 1044 1482 1307 1642 1272 1152 1320 1678 1614 1641 1497 1207 1066 1023 919 782 693
224 233 223 217 69 14 103 143 142 149 54 83 7 88 7 68 109 158 181 192 143 172 345 623 772 855 969 963 852 824 948 1056 1205 1253 1141 1245 830 905 1308 1426 1650 1652 1433 1280 1026 926 862 824 349
372 362 81 155 108 119 144 112 197 93 67 32 62 58 19 30 100 140 67 84 84 158 135 341 389 533 377 353 851 1200 1250 1245 1145 840 678 734 1060 686 937 356 1431 1491 1371 1030 988 817 688 601 461
371 111 11 245 107 99 179 62 229 200 156 18 0 0 0 0 62 101 58 58 77 81 47 116 128 39 114 522 873 1111 1040 882 798 653 713 531 534 441 631 366 855 1031 1099 778 693 503 303 92 236
342 26 121 122 231 173 285 302 259 157 56 0 0 0 0 0 13 67 86 84 138 125 108 93 173 151 229 610 749 689 892 917 873 563 792 583 541 550 468 452 565 693 743 829 553 323 222 33 31
404 183 5 52 196 261 252 292 225 114 2 0 0 0 0 0 0 1 13 102 128 128 86 104 289 274 329 553 457 427 760 853 793 779 701 676 524 536 560 274 291 355 160 454 517 557 314 272 196
159 23 88 85 157 402 320 356 362 233 52 31 0 0 0 0 0 0 0 71 109 114 102 126 255 437 439 422 549 635 1079 1056 772 646 692 818 480 399 511 206 319 270 197 493 394 284 74 150 74
141 94 73 211 460 337 111 333 348 375 144 86 24 0 0 0 0 0 5 11 56 101 98 164 174 302 414 857 741 447 719 646 754 828 710 991 599 552 387 373 359 370 286 290 375 256 130 47 84
35 18 55 134 208 320 162 277 325 388 288 142 150 35 0 0 0 0 0 2 5 14 135 272 319 296 527 894 949 507 356 678 696 414 802 994 754 655 539 446 286 148 96 224 560 239 167 75 122
19 10 11 42 75 212 261 489 423 368 383 308 240 251 155 0 0 0 0 0 19 90 136 309 488 569 859 864 1052 754 810 928 638 674 1112 1150 977 834 568 366 490 187 219 247 677 557 309 666 582
3 23 56 28 259 319 515 392 449 602 394 458 296 322 360 341 19 0 19 18 57 152 189 284 648 922 1023 1183 728 506 798 654 1061 688 1200 1453 949 864 715 617 669 314 216 320 659 613 630 983 692
0 19 48 20 55 343 645 480 321 190 729 543 352 428 483 499 487 352 163 194 213 183 218 433 751 819 1080 844 708 541 662 832 1172 678 866 1294 921 760 902 649 704 288 195 612 868 758 597 553 705
0 0 0 6 481 595 488 415 319 605 242 297 568 512 613 671 691 556 472 400 272 308 282 380 830 890 823 686 694 864 958 861 916 551 546 765 960 1030 935 728 795 337 314 583 641 640 581 741 835
0 0 0 0 13 347 452 128 432 341 337 520 614 645 687 752 896 834 695 544 480 325 328 421 794 859 873 704 595 926 959 972 758 578 426 433 743 923 1101 1216 852 433 407 686 557 663 690 901 667
0 0 0 0 0 0 22 126 176 220 476 269 358 611 754 844 865 970 815 700 579 527 414 400 680 750 797 692 407 842 950 1043 724 525 134 181 193 487 856 1063 797 636 655 711 668 706 949 833 525
0 0 0 0 0 0 9 77 137 94 46 104 378 508 768 964 860 969 865 819 637 583 525 724 723 744 762 622 340 704 770 769 748 549 211 13 19 81 456 912 1336 989 1011 879 837 624 675 794 881
0 0 0 0 0 0 41 52 109 127 79 191 382 525 699 996 901 1065 888 858 720 625 576 915 792 712 839 761 712 818 1049 944 880 788 394 191 190 371 823 868 1337 1481 982 1084 889 933 1004 907 1048
0 0 0 0 0 0 0 0 6 21 84 125 163 997 1145 622 944 1074 931 859 766 645 612 918 872 712 802 975 1123 1222 1205 1215 1295 1048 790 481 457 482 996 606 1351 1376 1349 1299 1137 1055 1096 1115 1157
0 0 0 0 0 1 0 15 34 32 123 1004 1495 1561 1597 1474 868 1057 951 866 867 897 651 689 841 744 747 888 1052 1320 1704 1657 1560 1257 1095 776 574 834 1041 1191 1365 1366 1116 1349 1506 1480 1163 1213 1171
0 0 0 0 1 10 49 26 93 581 787 1104 1435 1587 1645 1434 1168 1062 918 849 792 869 946 688 888 1183 1060 913 830 984 1162 1226 1676 1757 1477 1145 848 956 1021 663 1164 1099 1140 963 1423 1360 1313 1189 1041
0 0 0 0 0 0 69 124 209 846 1018 1364 1453 1310 1309 1346 1100 971 1022 740 479 772 1014 1232 797 1024 1488 1641 1495 1448 1659 1771 1617 1712 1980 1863 1359 1238 1127 893 1120 1195 1089 935 1154 1579 1421 1300 1129
0 0 0 0 0 0 0 241 971 1179 1303 1388 1450 1194 1129 1350 1220 1024 944 666 527 736 856 1240 1522 1229 1253 1487 1683 2130 2261 2293 2261 2154 2107 2102 2104 1863 1721 1229 1287 1427 1294 1249 980 1474 1687 1384 1063

GFSSGP_con_mucape_345.txt.gz
CAPE
1256 968 921 766 201 213 30 108 103 136 75 90 47 52 51 77 96 2 0 0 16 449 533 742 1352 810 719 1235 1842 1137 932 1336 1732 1426 1702 1695 1530 1688 1621 1594 1499 1403 1170 1603 1907 1694 1734 1808 1649
969 1024 925 817 198 47 12 99 158 144 72 112 71 83 87 105 49 0 0 0 244 502 803 564 1514 1061 737 1285 1795 1095 1047 1391 1655 1487 1528 1504 1451 1588 1621 1460 1056 1053 1063 1605 1641 1538 1630 1762 1858
636 809 679 833 138 47 21 112 100 83 55 98 126 84 54 108 43 1 0 26 440 518 849 582 1432 1090 991 1413 1641 1100 1166 1495 1829 1408 1191 1413 1392 1579 1694 1623 1265 1121 1301 1652 1788 1598 1694 1466 1252
1211 1200 1204 708 92 136 86 124 102 83 56 45 56 101 39 25 42 0 0 17 110 599 965 1108 1144 830 1260 1584 1466 1190 1275 1242 1901 1136 1362 1494 1331 1508 1633 1523 1587 1390 1448 1549 1528 1474 1465 1319 1363
1023 406 322 296 144 186 126 98 72 46 42 91 73 92 74 30 5 0 0 0 19 675 1020 687 1690 1309 1225 1680 1399 1108 1333 1110 1509 1266 1346 1514 1406 1471 1600 1551 1416 1341 1610 1592 1504 1405 1270 1356 1338
398 164 66 68 142 222 172 74 61 59 24 26 59 77 45 54 3 4 42 0 116 668 1285 713 1137 1840 1929 1485 1491 1608 1528 1132 1500 1485 1268 1550 1561 1521 1514 1489 1421 1594 1456 1237 1360 1158 1103 1079 1154
90 111 160 217 188 268 242 150 122 87 56 22 11 2 68 80 54 234 252 198 505 975 1261 1156 927 1457 1877 1685 1633 1556 1278 1193 1241 1349 1587 1218 1602 1452 1537 1410 1549 1244 1524 1459 1261 1300 1220 656 606
180 247 202 123 48 169 339 179 171 103 87 50 41 57 208 96 275 419 362 527 735 1065 1269 1245 1292 1337 1261 1265 1610 1587 1479 1127 990 1378 1480 1459 1250 1612 1520 1471 1552 1465 1237 1047 939 1178 755 818 830
71 76 170 167 87 124 242 218 194 122 85 79 67 30 71 189 354 389 360 336 434 906 1349 1316 1399 1302 1285 1237 1367 1706 1651 1097 1250 980 1286 1414 1208 1100 1424 1396 1472 1499 1309 1171 1093 995 1046 798 862
308 167 254 49 67 53 130 248 208 130 88 71 25 62 159 155 290 306 263 291 269 457 934 1132 1127 1106 1254 1404 1392 1471 1196 913 771 1345 1211 1342 1074 1012 1266 1592 1665 1719 1560 1159 986 971 1082 604 214
95 162 46 106 171 58 114 155 182 138 64 72 0 67 130 147 190 188 230 184 266 277 570 768 916 996 1138 1019 1113 1026 786 1009 1118 1144 988 967 961 834 1210 1066 1561 1417 1390 1143 933 747 570 440 360
425 183 7 188 128 141 193 122 158 176 137 78 25 30 34 118 180 178 222 210 125 250 247 302 710 739 759 646 574 768 1026 1260 1084 960 559 469 632 592 515 249 1051 1173 1150 762 798 420 252 281 356
380 90 100 266 225 201 263 170 176 157 37 15 45 41 20 74 122 94 168 2 5 112 194 195 302 376 345 204 712 769 1002 983 709 612 534 636 416 455 555 355 564 910 925 710 380 251 106 32 80
425 134 294 66 262 342 241 144 189 78 63 64 59 43 20 53 81 78 52 44 45 141 154 99 177 156 81 220 653 676 605 717 691 581 497 676 520 438 440 352 376 487 475 614 420 250 166 26 33
518 406 230 140 352 362 217 118 97 83 29 18 8 0 0 19 17 56 55 57 98 148 141 111 148 167 216 269 436 634 361 535 712 661 725 603 549 523 440 320 297 301 104 251 429 461 337 199 78
101 95 131 343 252 303 83 101 264 191 108 32 3 0 0 0 6 3 21 0 64 109 143 144 212 291 279 296 440 438 556 917 1008 810 628 666 667 518 354 171 187 314 162 204 221 245 61 151 115
53 37 31 212 487 312 250 238 230 270 241 178 84 35 0 0 0 23 0 19 99 111 133 129 184 429 463 408 433 427 699 718 680 640 783 866 814 477 418 349 324 331 336 289 224 184 60 130 54
2 7 20 49 222 415 507 499 158 168 220 260 225 175 98 0 0 38 11 34 131 162 211 174 155 268 478 564 660 644 392 467 589 657 476 758 857 581 527 427 378 242 157 68 202 283 145 151 62
0 0 6 112 341 529 486 384 313 126 199 182 278 221 268 149 0 0 26 4 85 171 244 219 259 256 370 507 789 765 636 749 836 653 673 889 968 705 494 411 325 222 107 106 240 501 338 488 658
0 0 0 184 332 526 548 455 538 351 154 86 232 268 315 354 223 10 0 0 13 45 94 147 205 374 522 487 572 615 892 642 811 849 670 1219 1142 799 603 490 509 456 138 176 442 495 525 533 550
0 0 0 39 408 549 563 524 493 312 399 208 311 445 439 473 434 363 253 60 0 0 29 150 178 447 649 612 686 772 449 543 596 917 634 770 1189 802 630 666 509 488 147 250 490 561 505 494 527
0 0 0 354 345 113 477 335 443 464 282 261 444 436 481 589 608 500 452 453 262 255 115 121 195 411 681 731 771 955 85 455 597 746 676 506 722 796 756 655 511 604 231 157 439 598 570 555 611
0 0 0 84 0 225 425 375 50 356 509 346 303 406 507 601 670 719 628 601 524 414 387 256 346 489 691 749 807 509 226 347 559 688 643 403 404 550 723 865 1031 790 489 234 422 428 499 542 719
0 0 0 0 0 0 68 409 0 230 474 478 442 474 550 537 655 803 816 667 608 522 450 371 417 566 661 748 741 553 296 364 553 607 523 444 252 183 398 841 915 767 380 273 454 441 605 798 822
0 0 0 0 3 0 12 172 14 96 182 128 293 454 499 567 635 744 880 897 677 663 555 496 534 589 668 741 763 621 347 336 521 647 521 458 52 1 14 321 674 978 590 542 588 546 536 558 714
0 0 0 0 0 18 21 8 53 84 157 212 352 1480 1229 614 413 757 845 889 932 766 576 514 529 533 595 656 607 594 303 384 506 481 490 545 217 132 53 499 686 1150 1171 885 876 712 662 868 959
0 0 0 0 1 8 3 27 68 438 1367 1325 1213 1122 1292 1363 922 783 724 871 1055 866 687 583 525 490 530 540 505 516 362 517 506 512 676 770 639 393 298 566 739 829 1191 1169 834 992 983 1002 849
0 0 0 0 0 7 23 76 144 535 1142 1085 1164 1078 1171 1257 1113 1040 938 887 892 911 655 674 654 526 498 576 539 523 629 647 671 721 796 1004 773 643 444 594 792 899 1021 1131 1122 1120 1081 1035 1047
0 0 0 0 0 0 13 118 230 810 1171 1169 1112 994 1005 1082 965 915 983 924 1082 912 785 633 788 671 529 535 562 625 804 1005 1095 922 1103 1025 881 758 504 646 728 934 970 1201 971 1170 1129 1242 1137
0 0 0 0 0 0 0 267 737 965 1233 1187 1041 1059 1075 1210 1197 1180 1096 995 1072 431 94 503 743 729 628 596 572 565 675 902 1099 1347 1387 1394 1308 1099 994 745 738 596 707 879 876 907 1095 1233 1156